Fort Atkinson, Wisconsin, United States (53538)
Lat: 42.93N, Lon: 88.84W
Wx Zone: WIZ064
Local Info
Past Weather Observations for Thursday, September 25, 2014

NOTE: This archive is for the closest National Weather Service station to Fort Atkinson. Information may differ from the station used for current weather conditions.

Click here for Long-term Archive

Time Weather Temperature Dewpoint Humidity Pressure Winds Precip Visibility
23:55
Partly Cloudy
55°F / 13°C 55°F / 13°C 100% 30.24 in
(1024 mb)
Calm - 7SM
23:35
Mostly Cloudy
55°F / 13°C 55°F / 13°C 100% 30.24 in
(1024 mb)
Calm - 10SM
23:15
Partly Cloudy
55°F / 13°C 55°F / 13°C 100% 30.24 in
(1024 mb)
Calm - 10SM
22:55
Clear
57°F / 14°C 55°F / 13°C 94% 30.24 in
(1024 mb)
Calm - 10SM
22:35
Clear
55°F / 13°C 55°F / 13°C 100% 30.24 in
(1024 mb)
Calm - 10SM
21:55
Clear
59°F / 15°C 55°F / 13°C 88% 30.24 in
(1024 mb)
Calm - 10SM
21:35
Clear
61°F / 16°C 57°F / 14°C 88% 30.24 in
(1024 mb)
E 3.5 mph
(E 6 kph)
- 10SM
21:15
Clear
61°F / 16°C 57°F / 14°C 88% 30.24 in
(1024 mb)
Calm - 10SM
20:55
Clear
61°F / 16°C 57°F / 14°C 88% 30.24 in
(1024 mb)
Calm - 10SM
20:35
Clear
63°F / 17°C 55°F / 13°C 77% 30.24 in
(1024 mb)
Calm - 10SM
20:15
Clear
63°F / 17°C 55°F / 13°C 77% 30.24 in
(1024 mb)
Calm - 10SM
19:55
Clear
63°F / 17°C 55°F / 13°C 77% 30.24 in
(1024 mb)
ESE 3.5 mph
(ESE 6 kph)
- 10SM
19:35
Clear
63°F / 17°C 55°F / 13°C 77% 30.24 in
(1024 mb)
E 4.6 mph
(E 7 kph)
- 10SM
19:15
Clear
63°F / 17°C 55°F / 13°C 77% 30.24 in
(1024 mb)
E 5.8 mph
(E 9 kph)
- 10SM
18:55
Clear
64°F / 18°C 54°F / 12°C 68% 30.24 in
(1024 mb)
E 4.6 mph
(E 7 kph)
- 10SM
18:35
Clear
64°F / 18°C 54°F / 12°C 68% 30.24 in
(1024 mb)
ESE 5.8 mph
(ESE 9 kph)
- 10SM
18:15
Clear
66°F / 19°C 54°F / 12°C 64% 30.21 in
(1023 mb)
ESE 4.6 mph
(ESE 7 kph)
- 10SM
17:55
Clear
68°F / 20°C 54°F / 12°C 60% 30.21 in
(1023 mb)
E 4.6 mph
(E 7 kph)
- 10SM
17:35
Clear
70°F / 21°C 52°F / 11°C 53% 30.21 in
(1023 mb)
E 4.6 mph
(E 7 kph)
- 10SM
17:15
Clear
72°F / 22°C 54°F / 12°C 53% 30.21 in
(1023 mb)
SE 4.6 mph
(SE 7 kph)
- 10SM
16:55
Clear
73°F / 23°C 52°F / 11°C 47% 30.21 in
(1023 mb)
SE 6.9 mph
(SE 11 kph)
- 10SM
16:35
Clear
75°F / 24°C 52°F / 11°C 44% 30.21 in
(1023 mb)
SE 4.6 mph
(SE 7 kph)
- 10SM
16:15
Clear
73°F / 23°C 52°F / 11°C 47% 30.21 in
(1023 mb)
ESE 3.5 mph
(ESE 6 kph)
- 10SM
15:55
Clear
75°F / 24°C 50°F / 10°C 41% 30.21 in
(1023 mb)
ESE 5.8 mph
(ESE 9 kph)
- 10SM
15:35
Clear
75°F / 24°C 54°F / 12°C 47% 30.21 in
(1023 mb)
ESE 6.9 mph
(ESE 11 kph)
- 10SM
15:15
Clear
75°F / 24°C 54°F / 12°C 47% 30.21 in
(1023 mb)
E 8.1 mph
(E 13 kph)
- 10SM
14:55
Clear
77°F / 25°C 54°F / 12°C 44% 30.21 in
(1023 mb)
S 4.6 mph
(S 7 kph)
- 10SM
14:35
Clear
77°F / 25°C 52°F / 11°C 42% 30.21 in
(1023 mb)
NE 4.6 mph
(NE 7 kph)
- 10SM
14:15
Clear
77°F / 25°C 50°F / 10°C 39% 30.21 in
(1023 mb)
SSE 6.9 mph
(SSE 11 kph)
- 10SM
13:55
Clear
77°F / 25°C 50°F / 10°C 39% 30.24 in
(1024 mb)
SE 8.1 mph
(SE 13 kph)
- 10SM
13:35
Clear
77°F / 25°C 50°F / 10°C 39% 30.24 in
(1024 mb)
SE 5.8 mph
(SE 9 kph)
- 10SM
13:15
Clear
77°F / 25°C 50°F / 10°C 39% 30.24 in
(1024 mb)
ESE 3.5 mph
(ESE 6 kph)
- 10SM
12:55
Clear
75°F / 24°C 50°F / 10°C 41% 30.24 in
(1024 mb)
S 4.6 mph
(S 7 kph)
- 10SM
12:35
Clear
77°F / 25°C 54°F / 12°C 44% 30.24 in
(1024 mb)
E 4.6 mph
(E 7 kph)
- 10SM
12:15
Clear
75°F / 24°C 54°F / 12°C 47% 30.27 in
(1025 mb)
E 6.9 mph
(E 11 kph)
- 10SM
11:55
Clear
75°F / 24°C 52°F / 11°C 44% 30.27 in
(1025 mb)
E 6.9 mph
(E 11 kph)
- 10SM
11:35
Clear
73°F / 23°C 54°F / 12°C 50% 30.27 in
(1025 mb)
NNE 3.5 mph
(NNE 6 kph)
- 10SM
11:15
Clear
70°F / 21°C 55°F / 13°C 60% 30.27 in
(1025 mb)
Calm - 10SM
10:55
Clear
68°F / 20°C 54°F / 12°C 60% 30.27 in
(1025 mb)
Calm - 10SM
10:35
Clear
66°F / 19°C 54°F / 12°C 64% 30.3 in
(1026 mb)
Calm - 10SM
10:15
Clear
64°F / 18°C 54°F / 12°C 68% 30.3 in
(1026 mb)
Calm - 10SM
09:55
Clear
64°F / 18°C 55°F / 13°C 73% 30.3 in
(1026 mb)
Calm - 10SM
09:35
Clear
63°F / 17°C 55°F / 13°C 77% 30.3 in
(1026 mb)
Calm - 10SM
09:15
Clear
63°F / 17°C 54°F / 12°C 73% 30.3 in
(1026 mb)
Calm - 10SM
08:55
Clear
61°F / 16°C 55°F / 13°C 83% 30.3 in
(1026 mb)
Calm - 10SM
08:35
Clear
61°F / 16°C 55°F / 13°C 83% 30.3 in
(1026 mb)
Calm - 10SM
08:15
Clear
59°F / 15°C 55°F / 13°C 88% 30.3 in
(1026 mb)
Calm - 10SM
07:55
Clear
57°F / 14°C 55°F / 13°C 94% 30.3 in
(1026 mb)
Calm - 10SM
07:35
Clear
57°F / 14°C 55°F / 13°C 94% 30.3 in
(1026 mb)
Calm - 10SM
07:15
Clear
55°F / 13°C 55°F / 13°C 100% 30.3 in
(1026 mb)
Calm - 10SM
06:55
Clear
55°F / 13°C 54°F / 12°C 94% 30.3 in
(1026 mb)
Calm - 10SM
06:35
Clear
54°F / 12°C 54°F / 12°C 100% 30.27 in
(1025 mb)
Calm - 10SM
06:15
Clear
54°F / 12°C 54°F / 12°C 100% 30.27 in
(1025 mb)
Calm - 10SM
05:55
Clear
54°F / 12°C 52°F / 11°C 94% 30.27 in
(1025 mb)
Calm - 10SM
05:35
Clear
54°F / 12°C 54°F / 12°C 100% 30.27 in
(1025 mb)
Calm - 10SM
05:15
Clear
54°F / 12°C 54°F / 12°C 100% 30.27 in
(1025 mb)
Calm - 10SM
04:55
Clear
54°F / 12°C 52°F / 11°C 94% 30.27 in
(1025 mb)
Calm - 10SM
04:35
Clear
54°F / 12°C 52°F / 11°C 94% 30.27 in
(1025 mb)
Calm - 10SM
04:15
Clear
54°F / 12°C 52°F / 11°C 94% 30.27 in
(1025 mb)
Calm - 10SM
03:55
Clear
54°F / 12°C 52°F / 11°C 94% 30.27 in
(1025 mb)
Calm - 10SM
03:35
Clear
55°F / 13°C 52°F / 11°C 88% 30.27 in
(1025 mb)
Calm - 10SM
03:15
Clear
55°F / 13°C 52°F / 11°C 88% 30.27 in
(1025 mb)
Calm - 10SM
02:55
Clear
54°F / 12°C 52°F / 11°C 94% 30.27 in
(1025 mb)
Calm - 10SM
02:35
Clear
54°F / 12°C 52°F / 11°C 94% 30.27 in
(1025 mb)
Calm - 10SM
02:15
Clear
54°F / 12°C 52°F / 11°C 94% 30.27 in
(1025 mb)
Calm - 10SM
01:55
Clear
54°F / 12°C 52°F / 11°C 94% 30.27 in
(1025 mb)
Calm - 10SM
01:35
Clear
54°F / 12°C 52°F / 11°C 94% 30.27 in
(1025 mb)
Calm - 10SM
01:15
Clear
55°F / 13°C 52°F / 11°C 88% 30.27 in
(1025 mb)
Calm - 10SM
00:55
Clear
55°F / 13°C 54°F / 12°C 94% 30.27 in
(1025 mb)
Calm - 10SM
00:35
Clear
55°F / 13°C 54°F / 12°C 94% 30.27 in
(1025 mb)
Calm - 10SM
00:15
Clear
55°F / 13°C 54°F / 12°C 94% 30.27 in
(1025 mb)
Calm - 10SM
Time Weather Temperature Dewpoint Humidity Pressure Winds Precip Visibility


Weather for websites

WeatherForYou.com, LLC is not responsible for any damages or problems caused by this service. Current weather conditions are obtained from the closest station including government and personal stations which may have varying degrees of accuracy. Weather forecasts are derived from the NOAA NDFD. Like all things, this site belongs to Jesus Christ... He just trusts me to maintain it. If you have any questions or comments email webmaster@weatherforyou.com

Copyright © 2014, WeatherForYou.com LLC. All rights reserved.